User: anonymous   Login
Location: Unspecified
(50.9593°N, 0.0000°E)
Time: 13:48:21
(UTC+00:00)
Language:

TISAT 1 - Orbit

View from above orbital plane
View from above orbital plane
View from above satellite
View from above satellite

Ground track
Ground track

The orbit is defined by the following mean orbital elements,

1 36799U          26088.07461447 +.00000000 +00000-0 +91959-3 0 00000
2 36799  98.0655  27.7471 0003635 128.8120 231.3443 15.28514657    00
Epoch (UTC): 29 March 2026 01:47:26
Eccentricity: 0.0003635
inclination: 98.0655°
perigee height: 478 km
apogee height: 483 km
right ascension of ascending node: 27.7471°
argument of perigee: 128.8120°
revolutions per day: 15.28514657
mean anomaly at epoch: 231.3443°

The dashed part of the orbit path shows where the satellite is in the earth's shadow,  

DLR